Regional Weather Roundup
Issued by NWS

Home | Current Version | Previous Version | Text Only | Print | Product List | Glossary On
Versions: 1 2 3 4 5 6 7 8 9 10 11 12 13 14 15 16 17 18 19 20 21 22 23 24 25 26 27 28 29 30 31 32 33 34 35 36 37 38 39 40 41 42 43 44 45 46 47 48 49 50
000
ASUS43 KMKX 062100
RWRWI

WISCONSIN REGIONAL WEATHER ROUNDUP
NATIONAL WEATHER SERVICE MILWAUKEE/SULLIVAN WI
400 PM CDT MON JUL 06 2015

NOTE: "FAIR" INDICATES FEW OR NO CLOUDS BELOW 12,000 FEET WITH NO
SIGNIFICANT WEATHER AND/OR OBSTRUCTIONS TO VISIBILITY.

WIZ001-002-006>008-014>016-023>028-062200-
NORTHWEST WISCONSIN

CITY           SKY/WX    TMP DP  RH WIND       PRES   REMARKS
SUPERIOR ARPT  CLOUDY    65  61  85 CALM      29.93S FOG
ASHLAND        CLOUDY    60  59  96 N7        29.92S FOG
HAYWARD        LGT RAIN  59  56  89 N8        29.92R VSB 1
SIREN          CLOUDY    64  61  90 N13G20    29.93S FOG
CUMBERLAND     CLOUDY    61  57  88 N16G22    29.92R FOG
RICE LAKE      CLOUDY    62  58  87 N9G18     29.91S FOG
CHETEK         LGT RAIN  62  59  90 N9G26     29.90R
LADYSMITH      LGT RAIN  61  58  91 N15G28    29.88S
EAU CLAIRE     LGT RAIN  64  59  83 N15G24    29.87R
MENOMONIE      RAIN      64  60  89 NW13G21   29.88R
NEW RICHMOND   CLOUDY    64  60  87 N15G21    29.94R FOG
OSCEOLA        CLOUDY    65  63  94 N7        29.96S FOG
$$

WIZ003>005-009-010-017-018-062200-
NORTH CENTRAL WISCONSIN

CITY           SKY/WX    TMP DP  RH WIND       PRES   REMARKS
MANITOWISH WTR RAIN      58  58 100 N10G17    29.89R
ARBOR VITAE    LGT RAIN  59  57  93 N18G28    29.87R
WOODRUFF       LGT RAIN  59  57  93 N18G28    29.87R
RHINELANDER    LGT RAIN  69  66  90 NW8       29.81F FOG
EAGLE RIVER    HVY RAIN  59  57  94 N23G31    29.84R
LAND O LAKES   LGT RAIN  58  56  94 N18G29    29.87R
PHILLIPS       LGT RAIN  58  57  97 N13G22    29.87R
TOMAHAWK       RAIN      69  67  96 CALM      29.81R
MEDFORD        RAIN      69  68  97 W9        29.80R
MERRILL        LGT RAIN  71  71 100 S6        29.79F
$$

WIZ029-030-035-036-043>047-062200-
CENTRAL WISCONSIN

CITY           SKY/WX    TMP DP  RH WIND       PRES   REMARKS
WAUSAU         LGT RAIN  73  70  90 SW9       29.78F
MOSINEE        LGT RAIN  72  72 100 SW10      29.80S
MARSHFIELD     CLOUDY    73  68  84 NW6       29.81S
STEVENS POINT  LGT RAIN  72  69  92 W5        29.80F
WAUPACA        CLOUDY    80  70  70 S8        29.81S HX  83
WAUTOMA        NOT AVBL
WISC RAPIDS    LGT RAIN  73  69  87 SW12G20   29.81S FOG
CAMP DOUGLAS   NOT AVBL
$$

WIZ011>013-019>022-031-037>040-048>050-062200-
NORTHEAST WISCONSIN

CITY           SKY/WX    TMP DP  RH WIND       PRES   REMARKS
ANTIGO         RAIN      72  70  94 S6        29.81F
SHAWANO        CLOUDY    80  71  74 S7        29.79F HX  83
OCONTO         CLOUDY    79  72  79 SW6       29.79S HX  82
STURGEON BAY   CLOUDY    70  63  78 S12       29.83S
GREEN BAY      CLOUDY    79  70  74 SW9       29.80R HX  82
MANITOWOC      NOT AVBL
APPLETON       PTSUNNY   79  68  69 SW9       29.83R HX  81
CLINTONVILLE   CLOUDY    79  68  69 SW8       29.80S HX  81
OSHKOSH        CLOUDY    78  70  76 S14       29.83R HX  80
$$

WIZ032>034-041-042-053>061-062200-
SOUTHWEST WISCONSIN

CITY           SKY/WX    TMP DP  RH WIND       PRES   REMARKS
LA CROSSE      CLOUDY    76  69  79 S8        29.80S
SPARTA         CLOUDY    76  67  73 S7        29.83S
VIROQUA        CLOUDY    72  71  95 SW9       29.85F
BOSCOBEL       CLOUDY    80  71  74 SW10      29.83F HX  84
PRAIRIE DU CHI CLOUDY    77  68  72 SW8       29.83F
PLATTEVILLE    CLOUDY    78  72  81 S16       29.86F HX  80
$$

WIZ056-057-062-063-064-067-068-062200-
SOUTH CENTRAL WISCONSIN

CITY           SKY/WX    TMP DP  RH WIND       PRES   REMARKS
REEDSBURG      CLOUDY    77  70  78 SW7       29.84S
BARABOO/DELLS  CLOUDY    79  67  66 SW10      29.84S HX  81
LONE ROCK      NOT AVBL
MINERAL POINT  CLOUDY    77  70  78 S14       29.87S
MADISON        CLOUDY    79  70  74 S12       29.84F HX  82
MIDDLETON      CLOUDY    82  70  66 S14       29.85F HX  86
WATERTOWN      CLOUDY    78  76  94 S7        29.84S HX  80
MONROE         CLOUDY    77  70  78 SW17      29.88S
JANESVILLE     CLOUDY    79  70  73 S12       29.86S HX  81
$$

WIZ051-052-058>065-066-070>072-062200-
SOUTHEAST WISCONSIN

CITY           SKY/WX    TMP DP  RH WIND       PRES   REMARKS
MILWAUKEE      CLOUDY    77  68  73 S13       29.84F
WAUKESHA       PTSUNNY   75  70  83 S8        29.86S
MILWAUKEE/TIMM SUNNY     77  68  73 S7        29.85S
RACINE         LGT RAIN  74  69  85 S9        29.87F
BURLINGTON     CLOUDY    74  71  88 S7        29.86F
KENOSHA        CLOUDY    75  69  81 S10       29.86F
FOND DU LAC    CLOUDY    79  71  76 S12       29.83R HX  82
SHEBOYGAN      CLOUDY    77  71  82 S14       29.83R
WEST BEND      CLOUDY    77  70  78 S7        29.85R
JUNEAU         CLOUDY    78  71  80 S12       29.87R HX  80
$$

LSZ147-162-062200-
LAKE SUPERIOR

STATION/POSITION TIME  TEMP    WIND        PRES    WAVE
                       AIR SEA DIR/SP/G            HT/PER
                 (UTC) (F)     (DEG/KT/KT) (MB)    (FT/S)
W MID LAKE BUOY  1950   50 39   30/  4/  4 1012.5R   0
DEVILS ISLAND    2000   59     270/  1/  2 1013.1R
PORT WING        2040   61     290/  3/  4 1013.5S
SAXON HARBOR     2040   59      CALM  /  7 1012.5S
$$

LMZ867-665-643>646-062200-
LAKE MICHIGAN

STATION/POSITION TIME  TEMP    WIND        PRES    WAVE
                       AIR SEA DIR/SP/G            HT/PER
                 (UTC) (F)     (DEG/KT/KT) (MB)    (FT/S)
CHAMBERS ISLAND  2040   72     150/  4/  9 1008.8F
N MID LAKE BUOY  1950   60 56  190/ 17/ 21 1009.6F   3/ 4
NORTHPORT PIER   2000   65     160/  8/ 14 1009.5F
SISTER BAY       1914   68     180/ 17/ 21   N/A
ALGOMA LAKESHORE 2011          210/ 13/ 15   N/A
KEWAUNEE LAKESHO 2000   60     180/ 15/ 16 1009.4F
SHEBOYGAN LAKESH 2000   62     160/ 17/ 18 1009.4F
PORT WASHINGTON  2040   67     190/  8/ 11 1011.5R
ATWATER BUOY     2000   65 59  140/ 14/ 16 1011.6F
MILWAUKEE LAKESH 2000   67     140/ 14/ 16   N/A
KENOSHA   LAKESH 2000   69     180/  9/ 10 1011.9F
$$

TC  - TEMPERATURE IN CELSIUS
VSB - VISIBILITY IN STATUTE MILES
WCI - WIND CHILL INDEX
HX  - HEAT INDEX



USA.gov is the U.S. government's official web portal to all federal, state and local government web resources and services.